This is the latest recevied weather packets stored in our database for station/object 9W2XPF-13. If no packets are shown the sender has not sent any weather packets the latest 10 day(s).
| Time | Temp. | Humidity | Pressure | Rain* | Wind** | Luminosity | Snow |
|---|---|---|---|---|---|---|---|
| 1777792802 | 30° C | 75% | 1007.2 hPa | 0 mm | - | - | - |
| 1777792682 | 30° C | 74% | 1007.2 hPa | 0 mm | - | - | - |
| 1777792562 | 30° C | 74% | 1007.2 hPa | 0 mm | - | - | - |
| 1777792442 | 30° C | 74% | 1007 hPa | 0 mm | - | - | - |
| 1777792322 | 30° C | 75% | 1006.7 hPa | 0 mm | - | - | - |
| 1777792202 | 30° C | 75% | 1006.7 hPa | 0 mm | - | - | - |
| 1777792081 | 30.56° C | 74% | 1006.9 hPa | 0 mm | - | - | - |
| 1777791962 | 30.56° C | 73% | 1007 hPa | 0 mm | - | - | - |
| 1777791842 | 30.56° C | 74% | 1007.2 hPa | 0 mm | - | - | - |
| 1777791722 | 30.56° C | 74% | 1007.2 hPa | 0 mm | - | - | - |
| 1777791602 | 30.56° C | 73% | 1007.2 hPa | 0 mm | - | - | - |
| 1777791482 | 30.56° C | 73% | 1007.3 hPa | 0 mm | - | - | - |
| 1777791362 | 30.56° C | 73% | 1007.1 hPa | 0 mm | - | - | - |
| 1777791242 | 31.11° C | 72% | 1006.9 hPa | 0 mm | - | - | - |
| 1777791121 | 31.11° C | 74% | 1006.8 hPa | 0 mm | - | - | - |
| 1777791002 | 31.11° C | 76% | 1006.8 hPa | 0 mm | - | - | - |
| 1777790882 | 31.11° C | 75% | 1006.8 hPa | 0 mm | - | - | - |
| 1777790762 | 31.11° C | 75% | 1006.7 hPa | 0 mm | - | - | - |
| 1777790642 | 31.67° C | 74% | 1007 hPa | 0 mm | - | - | - |
| 1777790522 | 31.67° C | 73% | 1007.1 hPa | 0 mm | - | - | - |
| 1777790402 | 31.67° C | 72% | 1007.1 hPa | 0 mm | - | - | - |
| 1777790282 | 31.67° C | 73% | 1007 hPa | 0 mm | - | - | - |
| 1777790162 | 32.22° C | 72% | 1007.1 hPa | 0 mm | - | - | - |
| 1777790042 | 32.22° C | 72% | 1007.4 hPa | 0 mm | - | - | - |
| 1777789922 | 31.67° C | 72% | 1007.2 hPa | 0 mm | - | - | - |
* Rain latest hour (hover to see other rain measurements)
** Current wind speed in m/s (hover to see current wind gust speed)